Regional Weather Roundup
Issued by NWS

Home | Current Version | Previous Version | Text Only | Print | Product List | Glossary On
Versions: 1 2 3 4 5 6 7 8 9 10 11 12 13 14 15 16 17 18 19 20 21 22 23 24 25 26 27 28 29 30 31 32 33 34 35 36 37 38 39 40 41 42 43 44 45 46 47 48 49 50
000
ASUS46 KPQR 260610
RWROR

OREGON REGIONAL WEATHER ROUNDUP
NATIONAL WEATHER SERVICE PORTLAND OR
1100 PM PDT SAT APR 25 2015

NOTE: "FAIR" INDICATES FEW OR NO CLOUDS BELOW 12,000 FEET WITH
NO SIGNIFICANT WEATHER AND/OR OBSTRUCTIONS TO VISIBILITY.

ORZ001>013-260700-
NORTHWEST OREGON


CITY           SKY/WX    TMP DP  RH WIND       PRES   REMARKS
ASTORIA        CLEAR     42  38  85 SE5       30.09R
6HR MIN TEMP:  42; 6HR MAX TEMP:  56;

NEWPORT        PTCLDY    41  39  93 E3        30.13S
PORTLAND       CLEAR     50  36  58 NW5       30.08R
6HR MIN TEMP:  49; 6HR MAX TEMP:  62;

VANCOUVER WA   NOT AVBL
SCAPPOOSE      CLEAR     47  34  60 CALM      30.07R
6HR MIN TEMP:  45; 6HR MAX TEMP:  61;

HILLSBORO      CLEAR     47  36  65 W7        30.07S
6HR MIN TEMP:  44; 6HR MAX TEMP:  62; 6HR PCP: TRACE;

AURORA         PTCLDY    45  42  89 S3        30.09R
6HR MIN TEMP:  45; 6HR MAX TEMP:  59; 6HR PCP:  0.16;

MCMINNVILLE    CLEAR     43  37  79 SW7       30.10R
6HR MIN TEMP:  43; 6HR MAX TEMP:  60;

SALEM          CLEAR     48  36  63 NW6       30.09R
6HR MIN TEMP:  48; 6HR MAX TEMP:  60;

CORVALLIS      CLEAR     43  37  81 NW5       30.11R
EUGENE         CLEAR     43  39  86 CALM      30.11R
6HR MIN TEMP:  41; 6HR MAX TEMP:  58; 6HR PCP:  0.01;

$$

ORZ021-028-260700-
SOUTHWEST OREGON


CITY           SKY/WX    TMP DP  RH WIND       PRES   REMARKS
NORTH BEND     MOCLDY    48  48 100 SE5       30.13R
6HR MIN TEMP:  48; 6HR MAX TEMP:  55;

BROOKINGS      PTCLDY    46  46 100 CALM      30.13S
ROSEBURG       CLEAR     47  40  76 CALM      30.11R
6HR MIN TEMP:  47; 6HR MAX TEMP:  59; 6HR PCP: TRACE;

SEXTON SUMMIT  CLEAR     35  34  96 N7        30.05S WCI  29
6HR MIN TEMP:  35; 6HR MAX TEMP:  48;

MEDFORD        CLOUDY    51  40  65 NE5       30.07R
6HR MIN TEMP:  51; 6HR MAX TEMP:  61;

$$

ORZ014>016-041-260700-
COLUMBIA GORGE


CITY           SKY/WX    TMP DP  RH WIND       PRES   REMARKS
TROUTDALE      CLEAR     49  36  61 W5        30.06S
6HR MIN TEMP:  49; 6HR MAX TEMP:  63; 6HR PCP: TRACE;

THE DALLES     CLEAR     48  32  53 W6        30.04R
6HR MIN TEMP:  47; 6HR MAX TEMP:  64;

$$

ORZ029>031-041-044-049-050-061>064-502-503-505>511-260700-
EASTERN OREGON


CITY           SKY/WX    TMP DP  RH WIND       PRES   REMARKS
REDMOND        CLOUDY    40  31  70 W7        30.03R
6HR MIN TEMP:  40; 6HR MAX TEMP:  53;

BEND           MOCLDY    39  30  70 W5        30.03R
PRINEVILLE     CLOUDY    37  30  75 W7        30.03R WCI  32
KLAMATH FALLS  CLEAR     33  27  78 SE3       30.02R
6HR MIN TEMP:  32; 6HR MAX TEMP:  53;

LAKEVIEW       PTCLDY    37  25  60 NW10      30.02R WCI  30
HERMISTON      MOCLDY    50  31  48 SW5       30.01R
6HR MIN TEMP:  45; 6HR MAX TEMP:  62;

PENDLETON      CLOUDY    44  29  55 NE6       30.00R
6HR MIN TEMP:  42; 6HR MAX TEMP:  56;

JOHN DAY       PTCLDY    36  30  77 SW6       30.01R WCI  32
MEACHAM        LGT SNOW  34  31  88 CALM      29.98S FOG
6HR MIN TEMP:  33; 6HR MAX TEMP:  46; 6HR PCP:  0.02;

LA GRANDE      PTCLDY    41  25  52 NW14G24   29.98S
6HR MIN TEMP:  39; 6HR MAX TEMP:  48;

BAKER CITY     PTCLDY    30  27  88 SW3       29.97R
6HR MIN TEMP:  26; 6HR MAX TEMP:  47; 6HR PCP: TRACE;

BURNS          MOCLDY    32  27  81 W10       30.00R WCI  24
6HR MIN TEMP:  29; 6HR MAX TEMP:  47;

ROME             N/A     36  28  73 N7        29.96R WCI  30
6HR MIN TEMP:  36; 6HR MAX TEMP:  53; 6HR PCP:  0.02;

ONTARIO        PTCLDY    43  31  62 W7        29.95R
6HR MIN TEMP:  43; 6HR MAX TEMP:  60;

$$


USA.gov is the U.S. government's official web portal to all federal, state and local government web resources and services.